Location: Newark
(46.3833°N, 6.2000°E)
Time: 02:01:58
(UTC+00:00)

ISS - Visible Passes

Search period start: 26 February 2020 00:00
Search period end: 07 March 2020 00:00
Orbit: 415 x 422 km, 51.6° (Epoch: 26 February)

Date Brightness Start Highest point End Pass type
(mag) Time Alt. Az. Time Alt. Az. Time Alt. Az.
26 Feb -2.4 04:11:56 34° SE 04:11:56 34° SE 04:14:50 10° ENE visible
26 Feb -3.4 05:45:09 10° W 05:48:27 51° NNW 05:51:47 10° ENE visible
27 Feb -0.5 03:26:20 13° E 03:26:20 13° E 03:26:55 10° E visible
27 Feb -3.8 04:59:18 31° W 05:00:45 70° NNW 05:04:08 10° ENE visible
28 Feb -3.3 04:13:36 60° ENE 04:13:36 60° ENE 04:16:29 10° ENE visible
28 Feb -2.8 05:46:58 10° WNW 05:50:07 35° N 05:53:17 10° ENE visible
29 Feb -0.8 03:27:51 17° ENE 03:27:51 17° ENE 03:28:45 10° ENE visible
29 Feb -3.0 05:00:48 25° WNW 05:02:20 41° NNW 05:05:35 10° ENE visible
01 Mar -3.1 04:14:59 48° N 04:14:59 48° N 04:17:53 10° ENE visible
02 Mar -1.0 03:29:07 19° ENE 03:29:07 19° ENE 03:30:12 10° ENE visible
02 Mar -2.5 05:02:03 18° WNW 05:03:59 32° N 05:07:05 10° ENE visible
03 Mar -2.7 04:16:10 35° N 04:16:10 35° N 04:19:18 10° ENE visible
04 Mar -1.1 03:30:15 20° NE 03:30:15 20° NE 03:31:33 10° ENE visible
04 Mar -2.5 05:03:11 14° NW 05:05:37 33° N 05:08:44 10° ENE visible
05 Mar -2.5 04:17:16 30° NNW 04:17:45 32° N 04:20:50 10° ENE visible
06 Mar -1.3 03:31:20 22° NE 03:31:20 22° NE 03:32:59 10° ENE visible
06 Mar -2.8 05:04:17 12° NW 05:07:10 44° NNE 05:10:25 10° E visible
